THORAD DELTA 1 DEB, 8555

Orbit data source: Space-Track

THORAD DELTA 1 DEB, 8555 is space debris in SSO originally from a launch on Fri, 15 Nov 1974 UTC launched from the Air Force Western Test Range (AFWTR). Debris objects in space refer to the collection of defunct objects orbiting the Earth. Examples of debris include non-operational satellites, rocket bodies, and fragments generated from explosions, collisions, or faulty payload assembly.

Loading next visibility...
Identifier
8555, 1974-089CS
Orbit
SSO
Country
Flag of USUS
Related business
Manufacturer
Unknown
Mission
Spacecraft
Bus & Motor
Unknown
Mass
Unknown
Launch date (UTC)
1974-11-15 (52 years ago)
Launch vehicle
Unknown
Launch site
Air Force Western Test Range (AFWTR)
Object type
Payload
Rocket body
Debris
Shape & HBR
Unknown shape, 0.1 m
Radar Cross Section
Medium (>0.1 m² and <1 m²)

Expand to show TLE details & history
Last TLE update: 12 hours ago

TLE from 12 hours ago
0 THORAD DELTA 1 DEB
1 08555U 74089CS  26207.24698812  .00000581  00000-0  37507-2 0  9996
2 08555 101.4105 322.6234 0060216 316.8323  73.1039 12.56395188358333
Epoch: 2026-07-26T05:55Z
TLE epoch observation values (Epoch: 2026-07-26T05:55:39.773Z)
Latitude
29.97955°
Longitude
-76.89287°
Altitude
1,427.925 km
Speed
7.156 km/s
True Right ascension
21h 03m 52s
True Declination
29° 50' 37"
Sunlit
Object was in full shadow at epoch
Visualization orbit readout
Latitude
Unknown
Longitude
Unknown
Altitude
Unknown
Speed
Unknown
Apparent Right ascension
Unknown
Apparent Declination
Unknown
Sunlit
N/A
Visualization observer readout
Local Sidereal Time
06:56:43
Azimuth
Unknown
Elevation
Unknown
Doppler factor
Unknown
Orbital elements
Apogee altitude
1,482.428 km
Perigee altitude
1,388.328 km
Semi-major axis
7,813.515 km
Eccentricity
0.00602
Inclination
101.4105°
RAAN
322.6234°
Arg. of periapsis
316.8323°
True anomaly
73.76557°
Mean anomaly
73.1039°
Eccentric anomaly
73.43459°
Mean motion
3.14249 °/min
Orbital period
114.56 mins
BSTAR
0.0037507
Loading maneuver chart data...
Computing Atmospheric mass density...

Documentation

Showing up to 5 results
|